Airfield :
LOGIN :

Register | Disclaimer

   EN    FR    IT 

 










Legend :    VFR   Marginal VFR   IFR   Intensive IFR   Very Intensive IFR
Visi :
Ceiling :
>= 8 km
>= 3000ft
5 to 8 km
1000 to 3000 ft
1500m to 5 km
500 to 1000 ft
800 to 1500m
200 to 500 ft
< 800m
< 200 ft
Symbols :   Thunderstorms  Fog  Heavy snow  Heavy precipitations  Wind > 20 kt
SIGMETs :     Misc.  Thunderstorms  Icing  Turbulence  Mountain Waves  Volcanic Ashes







- Airport Elevation : 580 ft
- Download approach charts


LFOA - Avord

CURRENT METAR :
  • 211430Z AUTO VRB02KT CAVOK 23/12 Q1014

EXPIRED METARs :
  • 211400Z AUTO VRB02KT CAVOK 23/13 Q1014
  • 211330Z AUTO 29004KT 250V320 9999 FEW048 OVC078 22/13 Q1014
  • 211300Z AUTO 31006KT 270V340 CAVOK 22/13 Q1015
  • 211230Z AUTO 31008KT 9999 FEW043 OVC084 22/13 Q1015
  • 211200Z AUTO 31007KT 280V340 9999 FEW039 SCT054 OVC078 22/13 Q1015

Expired Forecast.
No reported NOTAMs for that airfield.



MET'MAP, your aeronautical weather chart ! - Copyright ORBIFLY December 2007 - Disclaimer

ORBIFLY MET'MAP TEAM :

Programming & Development : Alexandra Zaïnal
Concept & Development : Baudouin d'Aumeries
Co-Development & Prog : Marc-Olivier Méhu
Technical & hardware support : Manuel Goepfert

Contact : metmap@orbifly.com




SOURCES & CREDITS :

   NOAA